When you browse on this site, cookies collect data to enhance your experience and personalize the content and advertising you see.
Visit our Privacy Policy to learn more. By continuing to use the site, you agree to this use of cookies and data.
  • En España
  • Lista de países
  • Para 7 días
  • Temperatura del agua
  • El tiempo en el mapa
  • Informadores
  • user-avatar
    Iniciar sesión

    Tiempo cada hora Mérida

    Hoy, 28 Mayo, Jueves

    Tiempo Temperatura Precipitaciones Viento Presión Humedad
    00:00 +16°C° 0.3 mm 1 mps 593 mmHg 89%
    01:00 +16°C° 0.3 mm 1 mps 593 mmHg 89%
    02:00 +16°C° 0.3 mm 1 mps 593 mmHg 89%
    03:00 +16°C° 0.3 mm 1 mps 592 mmHg 88%
    04:00 +16°C° 0.3 mm 1 mps 592 mmHg 88%
    05:00 +16°C° 0.1 mm 1 mps 593 mmHg 88%
    06:00 +16°C° 0.1 mm 1 mps 593 mmHg 87%
    07:00 +18°C° 0.1 mm 1 mps 594 mmHg 87%
    08:00 +19°C° 0.3 mm 1 mps 595 mmHg 85%
    09:00 +19°C° 0.3 mm 1 mps 595 mmHg 84%
    10:00 +20°C° 0.3 mm 1 mps 596 mmHg 82%
    11:00 +20°C° 1.1 mm 1 mps 595 mmHg 84%
    12:00 +20°C° 1.1 mm 1 mps 595 mmHg 87%
    13:00 +20°C° 1.1 mm 1 mps 594 mmHg 89%
    14:00 +20°C° 0.7 mm 1 mps 594 mmHg 89%
    15:00 +20°C° 0.7 mm 1 mps 593 mmHg 90%
    16:00 +20°C° 0.7 mm 1 mps 593 mmHg 91%
    17:00 +17°C° 0.5 mm 0 mps 593 mmHg 92%
    18:00 +17°C° 0.5 mm 0 mps 593 mmHg 93%
    19:00 +16°C° 0.5 mm 0 mps 593 mmHg 94%
    20:00 +16°C° 0.3 mm 1 mps 593 mmHg 94%
    21:00 +16°C° 0.3 mm 1 mps 593 mmHg 93%
    22:00 +16°C° 0.3 mm 1 mps 593 mmHg 92%
    23:00 +16°C° 0.2 mm 1 mps 593 mmHg 91%

    Mañana, 29 Mayo, Viernes

    Tiempo Temperatura Precipitaciones Viento Presión Humedad
    00:00 +15°C° 0.2 mm 1 mps 593 mmHg 91%
    01:00 +15°C° 0.2 mm 1 mps 593 mmHg 91%
    02:00 +15°C° 0 mm 1 mps 592 mmHg 91%
    03:00 +15°C° 0 mm 1 mps 592 mmHg 91%
    04:00 +15°C° 0 mm 1 mps 592 mmHg 91%
    05:00 +15°C° 0.1 mm 1 mps 593 mmHg 90%
    06:00 +16°C° 0.1 mm 1 mps 593 mmHg 89%
    07:00 +18°C° 0.1 mm 1 mps 594 mmHg 88%
    08:00 +18°C° 0.2 mm 1 mps 594 mmHg 88%
    09:00 +19°C° 0.2 mm 1 mps 595 mmHg 87%
    10:00 +20°C° 0.2 mm 1 mps 595 mmHg 86%
    11:00 +20°C° 0.9 mm 1 mps 595 mmHg 86%
    12:00 +20°C° 0.9 mm 1 mps 594 mmHg 85%
    13:00 +21°C° 0.9 mm 1 mps 594 mmHg 85%
    14:00 +20°C° 1.5 mm 1 mps 594 mmHg 87%
    15:00 +20°C° 1.5 mm 1 mps 593 mmHg 88%
    16:00 +20°C° 1.5 mm 1 mps 593 mmHg 90%
    17:00 +17°C° 0.6 mm 0 mps 593 mmHg 92%
    18:00 +16°C° 0.6 mm 0 mps 593 mmHg 93%
    19:00 +16°C° 0.6 mm 0 mps 593 mmHg 95%
    20:00 +15°C° 0.2 mm 0 mps 593 mmHg 93%
    21:00 +16°C° 0.2 mm 1 mps 593 mmHg 92%
    22:00 +15°C° 0.2 mm 1 mps 593 mmHg 90%
    23:00 +15°C° 0.1 mm 1 mps 593 mmHg 88%

    Pasado mañana, 30 Mayo, Sábado

    Tiempo Temperatura Precipitaciones Viento Presión Humedad
    00:00 +15°C° 0.1 mm 1 mps 592 mmHg 86%
    01:00 +14°C° 0.1 mm 1 mps 592 mmHg 83%
    02:00 +14°C° 0 mm 1 mps 592 mmHg 82%
    03:00 +14°C° 0 mm 2 mps 592 mmHg 80%
    04:00 +14°C° 0 mm 2 mps 592 mmHg 78%
    05:00 +15°C° 0 mm 2 mps 593 mmHg 77%
    06:00 +15°C° 0 mm 2 mps 593 mmHg 76%
    07:00 +16°C° 0 mm 1 mps 594 mmHg 75%
    08:00 +18°C° 0 mm 2 mps 595 mmHg 72%
    09:00 +19°C° 0 mm 2 mps 596 mmHg 69%
    10:00 +21°C° 0 mm 2 mps 596 mmHg 67%
    11:00 +20°C° 0.4 mm 2 mps 596 mmHg 72%
    12:00 +20°C° 0.4 mm 2 mps 595 mmHg 78%
    13:00 +20°C° 0.4 mm 2 mps 595 mmHg 84%
    14:00 +20°C° 0.9 mm 1 mps 594 mmHg 86%
    15:00 +20°C° 0.9 mm 1 mps 593 mmHg 88%
    16:00 +20°C° 0.9 mm 1 mps 593 mmHg 91%
    17:00 +19°C° 0.8 mm 1 mps 593 mmHg 92%
    18:00 +18°C° 0.8 mm 1 mps 593 mmHg 93%
    19:00 +18°C° 0.8 mm 1 mps 593 mmHg 94%
    20:00 +18°C° 0.7 mm 1 mps 593 mmHg 94%
    21:00 +16°C° 0.7 mm 1 mps 593 mmHg 93%
    22:00 +16°C° 0.7 mm 1 mps 594 mmHg 93%
    23:00 +16°C° 0.1 mm 1 mps 594 mmHg 93%

    31 Mayo, Domingo

    Tiempo Temperatura Precipitaciones Viento Presión Humedad
    00:00 +16°C° 0.1 mm 1 mps 593 mmHg 93%
    01:00 +15°C° 0.1 mm 1 mps 593 mmHg 93%
    02:00 +15°C° 0 mm 1 mps 593 mmHg 93%
    03:00 +15°C° 0 mm 1 mps 592 mmHg 93%
    04:00 +15°C° 0 mm 1 mps 592 mmHg 93%
    05:00 +15°C° 0 mm 1 mps 593 mmHg 91%
    06:00 +16°C° 0 mm 1 mps 594 mmHg 90%
    07:00 +18°C° 0 mm 1 mps 594 mmHg 88%
    08:00 +19°C° 0.3 mm 1 mps 595 mmHg 87%
    09:00 +19°C° 0.3 mm 1 mps 596 mmHg 87%
    10:00 +20°C° 0.3 mm 1 mps 596 mmHg 86%
    11:00 +20°C° 1 mm 1 mps 596 mmHg 88%
    12:00 +20°C° 1 mm 1 mps 595 mmHg 90%
    13:00 +20°C° 1 mm 1 mps 595 mmHg 92%
    14:00 +19°C° 2.6 mm 1 mps 594 mmHg 93%
    15:00 +19°C° 2.6 mm 1 mps 594 mmHg 94%
    16:00 +17°C° 2.6 mm 0 mps 593 mmHg 94%
    17:00 +18°C° 1.9 mm 1 mps 593 mmHg 94%
    18:00 +18°C° 1.9 mm 1 mps 593 mmHg 94%
    19:00 +18°C° 1.9 mm 1 mps 593 mmHg 94%
    20:00 +16°C° 0.6 mm 1 mps 593 mmHg 93%
    21:00 +16°C° 0.6 mm 1 mps 594 mmHg 92%
    22:00 +16°C° 0.6 mm 1 mps 594 mmHg 91%
    23:00 +16°C° 0.2 mm 1 mps 594 mmHg 91%

    1 Junio, Lunes

    Tiempo Temperatura Precipitaciones Viento Presión Humedad
    00:00 +16°C° 0.2 mm 1 mps 593 mmHg 92%
    01:00 +16°C° 0.2 mm 1 mps 593 mmHg 92%
    02:00 +15°C° 0 mm 1 mps 593 mmHg 92%
    03:00 +15°C° 0 mm 1 mps 593 mmHg 91%
    04:00 +15°C° 0 mm 1 mps 592 mmHg 91%
    05:00 +15°C° 0 mm 1 mps 593 mmHg 90%
    06:00 +16°C° 0 mm 1 mps 594 mmHg 89%
    07:00 +16°C° 0 mm 1 mps 594 mmHg 88%
    08:00 +18°C° 0.2 mm 1 mps 595 mmHg 88%
    09:00 +18°C° 0.2 mm 1 mps 595 mmHg 88%
    10:00 +19°C° 0.2 mm 1 mps 596 mmHg 88%
    11:00 +19°C° 0.5 mm 1 mps 595 mmHg 86%
    12:00 +20°C° 0.5 mm 1 mps 595 mmHg 84%
    13:00 +20°C° 0.5 mm 1 mps 595 mmHg 82%
    14:00 +20°C° 1 mm 1 mps 594 mmHg 86%
    15:00 +19°C° 1 mm 1 mps 594 mmHg 90%
    16:00 +19°C° 1 mm 1 mps 593 mmHg 94%
    17:00 +18°C° 1.1 mm 1 mps 593 mmHg 94%
    18:00 +18°C° 1.1 mm 1 mps 593 mmHg 94%
    19:00 +15°C° 1.1 mm 0 mps 593 mmHg 93%
    20:00 +15°C° 0.3 mm 0 mps 593 mmHg 92%
    21:00 +15°C° 0.3 mm 0 mps 594 mmHg 91%
    22:00 +15°C° 0.3 mm 0 mps 594 mmHg 90%
    23:00 +16°C° 0 mm 1 mps 593 mmHg 90%

    2 Junio, Martes

    Tiempo Temperatura Precipitaciones Viento Presión Humedad
    00:00 +16°C° 0 mm 1 mps 593 mmHg 89%
    01:00 +15°C° 0 mm 1 mps 593 mmHg 89%
    02:00 +15°C° 0.1 mm 1 mps 593 mmHg 89%
    03:00 +15°C° 0.1 mm 1 mps 592 mmHg 90%
    04:00 +15°C° 0.1 mm 1 mps 592 mmHg 90%
    05:00 +16°C° 0.1 mm 1 mps 593 mmHg 90%
    06:00 +16°C° 0.1 mm 1 mps 593 mmHg 89%
    07:00 +18°C° 0.1 mm 1 mps 594 mmHg 88%
    08:00 +19°C° 0.3 mm 1 mps 595 mmHg 87%
    09:00 +19°C° 0.3 mm 1 mps 595 mmHg 85%
    10:00 +20°C° 0.3 mm 1 mps 596 mmHg 83%
    11:00 +21°C° 0.7 mm 1 mps 595 mmHg 83%
    12:00 +21°C° 0.7 mm 1 mps 595 mmHg 82%
    13:00 +21°C° 0.7 mm 1 mps 594 mmHg 82%
    14:00 +21°C° 0.9 mm 1 mps 594 mmHg 85%
    15:00 +21°C° 0.9 mm 1 mps 593 mmHg 87%
    16:00 +20°C° 0.9 mm 1 mps 592 mmHg 90%
    17:00 +19°C° 0.4 mm 1 mps 592 mmHg 92%
    18:00 +16°C° 0.4 mm 0 mps 592 mmHg 94%
    19:00 +15°C° 0.4 mm 0 mps 592 mmHg 96%
    20:00 +15°C° 0.3 mm 0 mps 592 mmHg 95%
    21:00 +15°C° 0.3 mm 1 mps 593 mmHg 94%
    22:00 +15°C° 0.3 mm 1 mps 593 mmHg 93%
    23:00 +15°C° 0.1 mm 1 mps 592 mmHg 93%
    Mostrar más